Weather History for Douglas, WY

Change the Weather History Date:

Saturday, January 12, 2013

  Actual Average Record
Temperature  
Mean Temperature 7 °F 25 °F  
Max Temperature 12 °F 39 °F 53 °F (2010)
Min Temperature 2 °F 11 °F -15 °F (2011)
Degree Days  
Heating Degree Days 58 40  
Month to date heating degree days 503 482  
Since 1 July heating degree days 3224 3571  
Cooling Degree Days 0 0  
Month to date cooling degree days 0 0  
Year to date cooling degree days 0 0  
Moisture  
Dew Point 0 °F    
Average Humidity 75    
Maximum Humidity 87    
Minimum Humidity 63    
Precipitation  
Precipitation T in 0.01 in 0.11 in (2006)
Month to date precipitation T 0.12  
Year to date precipitation T 0.12  
Sea Level Pressure  
Sea Level Pressure 30.09 in    
Wind  
Wind Speed 12 mph (NW)    
Max Wind Speed 28 mph    
Max Gust Speed 35 mph    
Visibility 4 miles    
Events Snow    
T = Trace of Precipitation, MM = Missing Value Source: NWS Daily Summary

Daily Weather History Graph

Daily Weather History Graph

Search for Another Location

Airport:

Trip Planner

Search our weather history database for the weather conditions in past years. The results will help you decide how hot, cold, wet, or windy it might be!

Date:

Astronomy

Jan. 12, 2013 Rise Set
Actual Time 7:30 AM MST 4:49 PM MST
Civil Twilight 6:59 AM MST 5:21 PM MST
Nautical Twilight 6:23 AM MST 5:56 PM MST
Astronomical Twilight 5:49 AM MST 6:30 PM MST
Moon 7:48 AM MST (1/12) 6:24 PM MST (1/12)
Length of Visible Light 10h 22m
Length of Day
9h 19m
New Moon, 1% of the Moon is Illuminated
Jan 12
New Moon
Jan 18
First Quarter
Jan 26
Full
Feb 3
Last Quarter
Feb 10
New

Hourly Weather History & Observations

Time (MST) Temp. Windchill Dew Point Humidity Pressure Visibility Wind Dir Wind Speed Gust Speed Precip Events Conditions
12:53 AM 6.1 °F -13.8 °F -0.0 °F 76% 30.08 in 4.0 mi WNW 19.6 mph - 0.00 in   Haze
1:53 AM 6.1 °F -16.1 °F -2.0 °F 69% 30.10 in 10.0 mi WNW 25.3 mph 33.4 mph 0.00 in   Overcast
2:31 AM 5.0 °F -16.2 °F -2.2 °F 72% 29.87 in 10.0 mi WNW 21.9 mph 31.1 mph N/A   Overcast
2:53 AM 5.0 °F -16.7 °F -2.9 °F 70% 30.12 in 10.0 mi WNW 23.0 mph 31.1 mph N/A   Scattered Clouds
3:53 AM 5.0 °F -15.2 °F -2.0 °F 73% 30.14 in 10.0 mi NW 19.6 mph 25.3 mph N/A   Mostly Cloudy
4:53 AM 5.0 °F -14.2 °F -2.0 °F 73% 30.14 in 10.0 mi WNW 17.3 mph - N/A   Overcast
5:53 AM 5.0 °F -15.2 °F -2.9 °F 70% 30.17 in 2.5 mi NNW 19.6 mph 27.6 mph 0.00 in Snow Light Snow
6:41 AM 5.0 °F -13.0 °F -2.2 °F 72% 29.94 in 3.0 mi NW 15.0 mph - 0.00 in Snow Light Snow
6:53 AM 5.0 °F -13.6 °F -2.9 °F 70% 30.21 in 4.0 mi NW 16.1 mph 25.3 mph 0.00 in Snow Light Snow
7:36 AM 3.2 °F -15.9 °F -2.2 °F 78% 29.96 in 2.0 mi NW 16.1 mph 24.2 mph 0.00 in Snow Light Snow
7:43 AM 3.2 °F -15.9 °F -2.2 °F 78% 29.96 in 1.5 mi NW 16.1 mph 21.9 mph 0.00 in Snow Light Snow
7:53 AM 5.0 °F -13.6 °F -2.0 °F 73% 30.23 in 1.5 mi NW 16.1 mph - 0.00 in Snow Light Snow
8:15 AM 5.0 °F -14.2 °F -2.2 °F 72% 29.99 in 2.5 mi NW 17.3 mph - 0.00 in Snow Light Snow
8:28 AM 5.0 °F -12.3 °F -2.2 °F 72% 29.99 in 3.0 mi NW 13.8 mph - 0.00 in Snow Light Snow
8:50 AM 6.8 °F -7.8 °F -0.4 °F 72% 30.00 in 2.5 mi NW 10.4 mph - 0.00 in Snow Light Snow
8:53 AM 6.1 °F -10.2 °F -0.9 °F 73% 30.26 in 3.0 mi NW 12.7 mph - 0.00 in Snow Light Snow
9:17 AM 6.8 °F -9.3 °F -0.4 °F 72% 30.00 in 2.5 mi NW 12.7 mph - 0.00 in Snow Light Snow
9:40 AM 6.8 °F -9.3 °F -0.4 °F 72% 30.01 in 1.8 mi NW 12.7 mph - 0.00 in Snow Light Snow
9:51 AM 6.8 °F -7.8 °F -0.4 °F 72% 30.01 in 1.5 mi NW 10.4 mph - 0.00 in Snow Light Snow
9:53 AM 7.0 °F -7.5 °F -0.0 °F 73% 30.27 in 1.5 mi NW 10.4 mph - 0.00 in Snow Light Snow
10:31 AM 8.6 °F -7.0 °F -0.4 °F 67% 30.01 in 2.0 mi NNW 12.7 mph - 0.00 in Snow Light Snow
10:53 AM 9.0 °F -3.2 °F 1.0 °F 70% 30.25 in 2.0 mi NNW 8.1 mph - 0.00 in Snow Light Snow
11:18 AM 10.4 °F -1.5 °F 1.4 °F 67% 29.99 in 2.5 mi NW 8.1 mph - 0.00 in Snow Light Snow
11:25 AM 10.4 °F -2.4 °F 1.4 °F 67% 29.99 in 3.0 mi WNW 9.2 mph - 0.00 in Snow Light Snow
11:53 AM 10.0 °F -1.9 °F 1.0 °F 67% 30.22 in 3.0 mi NW 8.1 mph - 0.00 in Snow Light Snow
12:41 PM 10.4 °F -3.3 °F 1.4 °F 67% 29.97 in 4.0 mi WNW 10.4 mph - 0.00 in Snow Light Snow
12:53 PM 10.0 °F -1.9 °F 1.0 °F 67% 30.21 in 7.0 mi WNW 8.1 mph - 0.00 in   Overcast
1:40 PM 10.4 °F -4.8 °F 1.4 °F 67% 29.96 in 9.0 mi WNW 12.7 mph - 0.00 in   Overcast
1:53 PM 10.9 °F -4.1 °F 1.9 °F 67% 30.20 in 7.0 mi WNW 12.7 mph - 0.00 in   Overcast
2:53 PM 10.9 °F -4.1 °F -0.0 °F 61% 30.21 in 10.0 mi NW 12.7 mph - 0.00 in   Overcast
3:41 PM 10.4 °F -3.3 °F 1.4 °F 67% 29.97 in 2.5 mi NW 10.4 mph - 0.00 in Snow Light Snow
3:49 PM 10.4 °F -2.4 °F 1.4 °F 67% 29.97 in 1.8 mi NNW 9.2 mph - 0.00 in Snow Light Snow
3:53 PM 10.0 °F -3.7 °F 3.0 °F 73% 30.22 in 1.8 mi NW 10.4 mph - 0.00 in Snow Light Snow
3:57 PM 10.4 °F -2.4 °F 1.4 °F 67% 29.97 in 3.0 mi NW 9.2 mph - 0.00 in Snow Light Snow
4:08 PM 10.4 °F -4.1 °F 1.4 °F 67% 29.97 in 2.5 mi NW 11.5 mph - 0.00 in Snow Light Snow
4:16 PM 8.6 °F -4.7 °F 1.4 °F 73% 29.97 in 3.0 mi NW 9.2 mph - 0.00 in Snow Light Snow
4:34 PM 8.6 °F -3.7 °F 1.4 °F 73% 29.98 in 2.0 mi North 8.1 mph - 0.00 in Snow Light Snow
4:43 PM 8.6 °F -4.7 °F 1.4 °F 73% 29.98 in 1.8 mi NNW 9.2 mph - 0.00 in Snow Light Snow
4:53 PM 8.1 °F -5.3 °F 1.9 °F 76% 30.23 in 2.0 mi NNW 9.2 mph - 0.00 in Snow Light Snow
5:19 PM 6.8 °F -4.8 °F 1.4 °F 79% 29.98 in 3.0 mi NNW 6.9 mph - 0.00 in Snow Light Snow
5:53 PM 5.0 °F -5.6 °F -0.0 °F 80% 30.25 in 8.0 mi NNW 5.8 mph 93.2 mph 0.00 in   Overcast
6:53 PM 3.9 °F -3.4 °F -0.0 °F 84% 30.26 in 10.0 mi NNW 3.5 mph - N/A   Overcast
7:53 PM 3.9 °F - -0.9 °F 80% 30.26 in 7.0 mi Calm Calm - 0.00 in   Overcast
8:53 PM 3.0 °F -4.4 °F -0.9 °F 84% 30.26 in 10.0 mi North 3.5 mph - N/A   Overcast
10:53 PM 3.0 °F -9.3 °F -2.0 °F 80% 30.26 in 4.0 mi NW 6.9 mph - 0.00 in Snow Light Snow
11:53 PM 1.9 °F -10.6 °F -2.9 °F 80% 30.26 in 5.0 mi NW 6.9 mph - 0.00 in Snow Light Snow